When you browse on this site, cookies collect data to enhance your experience and personalize the content and advertising you see.
Visit our Privacy Policy to learn more. By continuing to use the site, you agree to this use of cookies and data.
  • In Austria
  • List of Countries
  • For 7 days
  • Water Temperature
  • Weather Map
  • News
  • Weather Widgets
  • user-avatar
    Login

    Hourly Weather Sharan

    Today, 27 May, Wednesday

    Time Temperature Precipitation Wind Pressure Humidity
    00:00 +23°C° 0 mm 2 mps 589 mmHg 22%
    01:00 +21°C° 0 mm 2 mps 588 mmHg 25%
    02:00 +20°C° 0 mm 2 mps 587 mmHg 27%
    03:00 +19°C° 0 mm 2 mps 587 mmHg 29%
    04:00 +19°C° 0 mm 2 mps 587 mmHg 31%
    05:00 +18°C° 0 mm 2 mps 586 mmHg 32%
    06:00 +19°C° 0 mm 3 mps 587 mmHg 30%
    07:00 +20°C° 0 mm 3 mps 588 mmHg 27%
    08:00 +21°C° 0 mm 3 mps 588 mmHg 25%
    09:00 +23°C° 0 mm 4 mps 589 mmHg 22%
    10:00 +25°C° 0 mm 4 mps 589 mmHg 19%
    11:00 +26°C° 0 mm 4 mps 590 mmHg 16%
    12:00 +27°C° 0 mm 4 mps 589 mmHg 15%
    13:00 +28°C° 0 mm 4 mps 589 mmHg 14%
    14:00 +28°C° 0 mm 3 mps 589 mmHg 12%
    15:00 +28°C° 0 mm 5 mps 589 mmHg 13%
    16:00 +28°C° 0 mm 6 mps 588 mmHg 15%
    17:00 +28°C° 0 mm 7 mps 588 mmHg 16%
    18:00 +27°C° 0 mm 6 mps 588 mmHg 17%
    19:00 +26°C° 0 mm 4 mps 588 mmHg 19%
    20:00 +25°C° 0 mm 3 mps 588 mmHg 20%
    21:00 +24°C° 0 mm 3 mps 587 mmHg 22%
    22:00 +24°C° 0 mm 3 mps 587 mmHg 24%
    23:00 +22°C° 0 mm 3 mps 587 mmHg 27%

    Tomorrow, 28 May, Thursday

    Time Temperature Precipitation Wind Pressure Humidity
    00:00 +21°C° 0 mm 3 mps 587 mmHg 28%
    01:00 +20°C° 0 mm 3 mps 586 mmHg 30%
    02:00 +20°C° 0 mm 3 mps 586 mmHg 31%
    03:00 +19°C° 0 mm 3 mps 586 mmHg 34%
    04:00 +18°C° 0 mm 3 mps 585 mmHg 36%
    05:00 +18°C° 0 mm 3 mps 585 mmHg 39%
    06:00 +19°C° 0 mm 3 mps 586 mmHg 36%
    07:00 +20°C° 0 mm 3 mps 586 mmHg 33%
    08:00 +21°C° 0 mm 3 mps 587 mmHg 31%
    09:00 +22°C° 0 mm 3 mps 587 mmHg 27%
    10:00 +25°C° 0 mm 4 mps 588 mmHg 24%
    11:00 +26°C° 0 mm 4 mps 588 mmHg 20%
    12:00 +26°C° 0 mm 4 mps 588 mmHg 22%
    13:00 +25°C° 0 mm 5 mps 587 mmHg 24%
    14:00 +25°C° 0 mm 5 mps 586 mmHg 26%
    15:00 +24°C° 0.1 mm 6 mps 586 mmHg 26%
    16:00 +23°C° 0.1 mm 7 mps 586 mmHg 26%
    17:00 +23°C° 0.1 mm 7 mps 586 mmHg 27%
    18:00 +22°C° 0 mm 7 mps 586 mmHg 29%
    19:00 +22°C° 0 mm 7 mps 586 mmHg 31%
    20:00 +21°C° 0 mm 7 mps 586 mmHg 33%
    21:00 +20°C° 0 mm 7 mps 587 mmHg 35%
    22:00 +20°C° 0 mm 7 mps 587 mmHg 38%
    23:00 +20°C° 0 mm 7 mps 587 mmHg 40%

    Day after tomorrow, 29 May, Friday

    Time Temperature Precipitation Wind Pressure Humidity
    00:00 +19°C° 0 mm 6 mps 587 mmHg 42%
    01:00 +19°C° 0 mm 4 mps 586 mmHg 44%
    02:00 +18°C° 0 mm 2 mps 586 mmHg 46%
    03:00 +18°C° 0 mm 2 mps 586 mmHg 46%
    04:00 +18°C° 0 mm 3 mps 585 mmHg 46%
    05:00 +18°C° 0 mm 3 mps 585 mmHg 46%
    06:00 +19°C° 0 mm 3 mps 586 mmHg 42%
    07:00 +20°C° 0 mm 3 mps 586 mmHg 38%
    08:00 +21°C° 0 mm 3 mps 587 mmHg 34%
    09:00 +22°C° 0 mm 3 mps 587 mmHg 31%
    10:00 +24°C° 0 mm 2 mps 588 mmHg 27%
    11:00 +26°C° 0 mm 2 mps 588 mmHg 23%
    12:00 +26°C° 0 mm 3 mps 588 mmHg 24%
    13:00 +26°C° 0 mm 4 mps 588 mmHg 25%
    14:00 +26°C° 0 mm 5 mps 588 mmHg 26%
    15:00 +23°C° 0.4 mm 5 mps 587 mmHg 34%
    16:00 +21°C° 0.4 mm 5 mps 586 mmHg 42%
    17:00 +19°C° 0.4 mm 5 mps 586 mmHg 50%
    18:00 +19°C° 0.2 mm 5 mps 586 mmHg 51%
    19:00 +17°C° 0.2 mm 5 mps 587 mmHg 52%
    20:00 +17°C° 0.2 mm 5 mps 587 mmHg 52%
    21:00 +17°C° 0 mm 5 mps 587 mmHg 54%
    22:00 +18°C° 0 mm 4 mps 587 mmHg 55%
    23:00 +17°C° 0 mm 3 mps 587 mmHg 56%

    30 May, Saturday

    Time Temperature Precipitation Wind Pressure Humidity
    00:00 +17°C° 0 mm 3 mps 587 mmHg 55%
    01:00 +17°C° 0 mm 2 mps 586 mmHg 55%
    02:00 +17°C° 0 mm 2 mps 586 mmHg 54%
    03:00 +17°C° 0 mm 2 mps 586 mmHg 56%
    04:00 +16°C° 0 mm 1 mps 586 mmHg 57%
    05:00 +16°C° 0 mm 1 mps 585 mmHg 59%
    06:00 +18°C° 0 mm 1 mps 586 mmHg 54%
    07:00 +19°C° 0 mm 1 mps 587 mmHg 50%
    08:00 +19°C° 0 mm 2 mps 588 mmHg 45%
    09:00 +21°C° 0.1 mm 1 mps 588 mmHg 41%
    10:00 +22°C° 0.1 mm 1 mps 589 mmHg 38%
    11:00 +23°C° 0.1 mm 1 mps 589 mmHg 34%
    12:00 +24°C° 0.2 mm 2 mps 589 mmHg 32%
    13:00 +25°C° 0.2 mm 2 mps 589 mmHg 30%
    14:00 +26°C° 0.2 mm 2 mps 589 mmHg 28%
    15:00 +22°C° 1.2 mm 4 mps 588 mmHg 39%
    16:00 +20°C° 1.2 mm 6 mps 587 mmHg 50%
    17:00 +16°C° 1.2 mm 8 mps 586 mmHg 61%
    18:00 +16°C° 0.4 mm 7 mps 586 mmHg 60%
    19:00 +16°C° 0.4 mm 6 mps 587 mmHg 60%
    20:00 +17°C° 0.4 mm 4 mps 587 mmHg 60%
    21:00 +17°C° 0 mm 3 mps 587 mmHg 59%
    22:00 +17°C° 0 mm 2 mps 587 mmHg 59%
    23:00 +18°C° 0 mm 1 mps 588 mmHg 58%

    31 May, Sunday

    Time Temperature Precipitation Wind Pressure Humidity
    00:00 +18°C° 0 mm 1 mps 587 mmHg 60%
    01:00 +15°C° 0 mm 0 mps 587 mmHg 62%
    02:00 +15°C° 0 mm 0 mps 586 mmHg 64%
    03:00 +15°C° 0 mm 0 mps 586 mmHg 64%
    04:00 +14°C° 0 mm 0 mps 586 mmHg 64%
    05:00 +14°C° 0 mm 0 mps 586 mmHg 65%
    06:00 +16°C° 0 mm 1 mps 587 mmHg 58%
    07:00 +18°C° 0 mm 1 mps 587 mmHg 52%
    08:00 +18°C° 0 mm 2 mps 588 mmHg 45%
    09:00 +21°C° 0 mm 1 mps 589 mmHg 40%
    10:00 +22°C° 0 mm 1 mps 589 mmHg 35%
    11:00 +23°C° 0 mm 1 mps 589 mmHg 29%
    12:00 +24°C° 0 mm 1 mps 589 mmHg 25%
    13:00 +25°C° 0 mm 1 mps 590 mmHg 22%
    14:00 +26°C° 0 mm 1 mps 590 mmHg 18%
    15:00 +27°C° 0 mm 1 mps 590 mmHg 17%
    16:00 +27°C° 0 mm 1 mps 590 mmHg 16%
    17:00 +27°C° 0 mm 1 mps 590 mmHg 15%
    18:00 +26°C° 0.1 mm 3 mps 589 mmHg 25%
    19:00 +23°C° 0.1 mm 5 mps 588 mmHg 35%
    20:00 +21°C° 0.1 mm 7 mps 588 mmHg 46%
    21:00 +21°C° 0 mm 5 mps 588 mmHg 48%
    22:00 +20°C° 0 mm 4 mps 588 mmHg 51%
    23:00 +19°C° 0 mm 2 mps 589 mmHg 54%

    1 June, Monday

    Time Temperature Precipitation Wind Pressure Humidity
    00:00 +20°C° 0 mm 1 mps 588 mmHg 56%
    01:00 +20°C° 0 mm 1 mps 588 mmHg 58%
    02:00 +17°C° 0 mm 0 mps 588 mmHg 60%
    03:00 +17°C° 0 mm 0 mps 588 mmHg 61%
    04:00 +17°C° 0 mm 0 mps 588 mmHg 63%
    05:00 +16°C° 0 mm 0 mps 587 mmHg 64%
    06:00 +17°C° 0 mm 0 mps 588 mmHg 59%
    07:00 +20°C° 0 mm 1 mps 588 mmHg 54%
    08:00 +21°C° 0 mm 1 mps 589 mmHg 49%
    09:00 +22°C° 0 mm 1 mps 589 mmHg 40%
    10:00 +23°C° 0 mm 2 mps 590 mmHg 31%
    11:00 +25°C° 0 mm 2 mps 590 mmHg 22%
    12:00 +26°C° 0 mm 2 mps 590 mmHg 18%
    13:00 +27°C° 0 mm 2 mps 591 mmHg 14%
    14:00 +28°C° 0 mm 2 mps 591 mmHg 10%
    15:00 +28°C° 0 mm 2 mps 590 mmHg 10%
    16:00 +28°C° 0 mm 2 mps 590 mmHg 9%
    17:00 +29°C° 0 mm 2 mps 590 mmHg 8%
    18:00 +28°C° 0 mm 2 mps 590 mmHg 12%
    19:00 +27°C° 0 mm 2 mps 589 mmHg 17%
    20:00 +26°C° 0 mm 2 mps 589 mmHg 21%
    21:00 +25°C° 0 mm 2 mps 589 mmHg 27%
    22:00 +24°C° 0 mm 2 mps 589 mmHg 34%
    23:00 +23°C° 0 mm 2 mps 589 mmHg 40%
    Show more